AirNav   Bose ProFlight Aviation Headset
 
 906 users online  

KCGS College Park Airport
College Park, Maryland, USA

GOING TO COLLEGE PARK?


FAA INFORMATION EFFECTIVE 13 SEPTEMBER 2018

Location

FAA Identifier: CGS
Lat/Long: 38-58-50.1000N / 076-55-20.3000W
38-58.835000N / 076-55.338333W
38.9805833 / -76.9223056
(estimated)
Elevation: 48.4 ft. / 14.8 m (surveyed)
Variation: 11W (2000)
From city: 1 mile E of COLLEGE PARK, MD
Time zone: UTC -4 (UTC -5 during Standard Time)
Zip code: 20740

Airport Operations

Airport use: Open to the public
Activation date: 04/1940
Control tower: no
ARTCC: WASHINGTON CENTER
FSS: LEESBURG FLIGHT SERVICE STATION
NOTAMs facility: CGS (NOTAM-D service available)
Attendance: 0700-2200,
Pattern altitude: 1048.4 ft. MSL
Wind indicator: lighted
Segmented circle: yes
Lights: ACTVT MIRL RY 15/33; APAP RY 15 - CTAF 5 CLICKS.
Beacon: white-green (lighted land airport)
Operates sunset to sunrise.

Airport Communications

CTAF/UNICOM: 122.975
WX AWOS-3: 121.225 (301-864-5497)
POTOMAC APPROACH: 125.65(DC FRZ) 124.7
POTOMAC DEPARTURE: 125.65(DC FRZ) 124.7
IRONS STAR: 126.4
WX ASOS at DCA (9 nm SW): 132.65 (703-412-8140)
WX AWOS-3 at FME (10 nm NE): 123.925
WX AWOS-3PT at GAI (16 nm NW): 128.275 (301-977-2971)
WX ASOS at BWI (17 nm NE): PHONE 410-691-1278

Nearby radio navigation aids

VOR radial/distance  VOR name  Freq  Var
DCAr045/9.0WASHINGTON VOR/DME111.0009W
ADWr356/10.7ANDREWS VORTAC113.1010W
BALr238/16.7BALTIMORE VORTAC115.1011W
OTTr343/18.5NOTTINGHAM VORTAC113.7010W
AMLr092/25.5ARMEL VOR/DME113.5008W
EMIr183/31.0WESTMINSTER VORTAC117.9008W
FDKr149/(33.4)FREDERICK VOR109.0008W

 
NDB name  Hdg/Dist  Freq  Var  ID
GEORGETOWN081/9.932309WGTN --. - -.
OXONN032/13.833211WDCA -.. -.-. .-
ELLICOTT211/19.637111WFND ..-. -. -..
DAVEE034/21.122309WDAA -.. .- .-

Airport Services

Fuel available: 100LL JET-A
Parking: tiedowns
Airframe service: NONE
Powerplant service: NONE
Bottled oxygen: NONE
Bulk oxygen: NONE

Runway Information

Runway 15/33

Dimensions: 2607 x 60 ft. / 795 x 18 m
Surface: asphalt, in fair condition
Runway edge lights: medium intensity
Runway edge markings: MARKINGS FADED.
RUNWAY 15  RUNWAY 33
Latitude: 38-58.995650N38-58.674748N
Longitude: 076-55.520488W076-55.154692W
Elevation: 48.4 ft.39.1 ft.
Gradient: 0.4% DOWN0.4% UP
Traffic pattern: leftleft
Runway heading: 149 magnetic, 138 true329 magnetic, 318 true
Displaced threshold: 416 ft.201 ft.
Markings: nonprecision, in poor conditionnonprecision, in poor condition
Runway end identifier lights: nono
Touchdown point: yes, no lightsyes, no lights
Obstructions: 55 ft. trees, 619 ft. from runway, 32 ft. left of centerline, 7:1 slope to clear
APCH SLOPE AT CL 20:1 FM DSPLCD THLD AND CENTERLINE.
72 ft. trees, 1437 ft. from runway, 17:1 slope to clear
+15 FT FENCE 87 FT R AT THR; -6 FT DITCH 65 FT L AT THR.

Airport Ownership and Management from official FAA records

Ownership: Publicly-owned
Owner: MNCPPC
GOVERNOR ODEN BOWIE DR
UPPER MARLBORO, MD 20772
Phone 301-952-3261
MARYLAND NATIONAL CAPITAL PARK & PLANNING CMSN.
Manager: LEE SOMMER
1909 CORPORAL FRANK SCOTT DRIVE
COLLEGE PARK, MD 20740
Phone 301-864-5844

Airport Operational Statistics

Aircraft based on the field: 28
Single engine airplanes: 26
Helicopters: 2
    
Aircraft operations: avg 60/week *
59% local general aviation
32% transient general aviation
8% military
<1% air taxi
* for 12-month period ending 14 September 2017

Additional Remarks

NO TKOFS 2200-0700; LNDG ONLY.
TSNT PRKG: FIRST 4 HRS FREE; FEE AFT, WAIVED W/MIN FUEL PURCHASE; OVNGT FEE.
HEL RAMP FEE; WAIVED IF UNDER 3500 LBS OR MIN FUEL PURCHASE.
ACFT HANDLING FEE IF RELOCATION TO/FROM FUEL AREA RQRD BY ARPT PSNL.
BLDG 0.1 NM S OF ARPT 23 FT AGL LGTD.
CATEGORY 1 ACFT ONLY; NO ACFT OVER 8500 LBS MFR GROSS WT; HELICOPTERS ONLY WITH 24 HR PPR - CALL AMGR 301-864-5844.
NOISE ABATEMENT PROCEDURES IN EFFECT CTC AMGR 301-864-5844.
AER 15 HEAVY SMOKE & FIREFIGHTING TRAINING OPNS INTERMITTENTLY IN PROGRESS.
NO STUDENT TGL OR SOLO OPNS PERMITTED.
DEER AND OTHER WILDLIFE ON & INVOF ARPT.
COMPLIANCE WITH 14CFR SECTION 93.335 IS REQUIRED BEFORE PILOTS MAY OPERATE TO/FROM THIS AIRPORT.
FOR CD CTC POTOMAC APCH AT 866-599-3874.

Instrument Procedures

NOTE: All procedures below are presented as PDF files. If you need a reader for these files, you should download the free Adobe Reader.

NOT FOR NAVIGATION. Please procure official charts for flight.
FAA instrument procedures published for use from 13 September 2018 at 0901Z to 11 October 2018 at 0900Z.

 
IAPs - Instrument Approach Procedures
RNAV (GPS)-A   download (131KB)
RNAV (GPS)-B   download (125KB)
NOTE: Special Take-Off Minimums/Departure Procedures apply   download (140KB)

Other nearby airports with instrument procedures:

W00 - Freeway Airport (7 nm E)
KDCA - Ronald Reagan Washington National Airport (9 nm SW)
KFME - Tipton Airport (10 nm NE)
KADW - Joint Base Andrews (11 nm S)
W32 - Washington Executive Airport/Hyde Field (14 nm S)
KVKX - Potomac Airfield (14 nm S)
KGAI - Montgomery County Airpark (16 nm NW)
KBWI - Baltimore/Washington International Thurgood Marshall Airport (17 nm NE)
KANP - Lee Airport (17 nm E)
W50 - Davis Airport (19 nm NW)
 
Loc | Ops | Rwys | IFR | FBO | Links
Com | Nav | Svcs | Stats | Notes


 
Area around KCGS (College Park Airport)
 
Road maps at: MapQuest Bing Google
 
Aerial photo
WARNING: Photo may not be current or correct
Aerial photo of KCGS (College Park Airport)
Photo taken 19-Oct-2016
looking north.

Do you have a better or more recent aerial photo of College Park Airport that you would like to share? If so, please send us your photo.

 
Sectional chart

 
Airport distance calculator
Flying to College Park Airport? Find the distance to fly.

From to KCGS

Sunrise and sunset
Times for 20-Sep-2018
 Local
(UTC-4)
 Zulu
(UTC)
Morning civil twilight06:2810:28
Sunrise06:5410:54
Sunset19:0823:08
Evening civil twilight19:3423:34

Current date and time
Zulu (UTC)  21-Sep-2018 02:58:12
Local (UTC-4)  20-Sep-2018 22:58:12
 
METAR
KCGS 210128Z AUTO 00000KT 10SM OVC038 23/19 A3021 RMK AO1 T02270191
KDCA 
9nm SW 
210252Z 16010KT 10SM OVC040 23/19 A3022 RMK AO2 SLP233 T02330189 51015
KFME 
10nm NE 
210248Z AUTO 13008KT 10SM OVC018 21/18 A3025 RMK AO1
KADW 
10nm S 
210156Z AUTO 14009KT 10SM OVC036 22/19 A3021 RMK AO2 SLP235 T02190191 $
KVKX 
14nm S 
SuperAWOS
210235Z AUTO 00000KT 10SM 22/20 A3023
KBWI 
16nm NE 
210254Z 13004KT 10SM OVC020 22/18 A3023 RMK AO2 SLP234 T02170183 51016
KGAI 
16nm NW 
210156Z AUTO 14008KT 10SM FEW027 BKN033 OVC055 22/20 A3022 RMK AO2 SLP258 T02220200
KANP 
17nm E 
SuperAWOS
210235Z AUTO 00000KT 10SM 22/18 A3023
KDAA 
20nm SW 
210156Z AUTO 13005KT 10SM OVC034 23/22 A3021 RMK AO2 SLP233 T02280221 TSNO $
TAF
KDCA 
9nm SW 
202056Z 2021/2124 15007KT P6SM SCT025 BKN040 FM210300 14006KT P6SM BKN025 FM211300 17008KT P6SM BKN030 FM212000 19010G17KT P6SM SCT040 SCT120
KADW 
10nm S 
210101Z 2101/2207 12006KT 9999 BKN050 QNH3016INS BECMG 2102/2103 VRB06KT 9999 BKN015 OVC025 QNH3020INS BECMG 2111/2112 VRB06KT 6000 BR BKN008 OVC015 QNH3019INS TEMPO 2114/2116 17012KT 9999 SCT008 BKN015 BECMG 2115/2116 18010G15KT 9999 NSW SCT015 OVC025 QNH3005INS BECMG 2202/2203 19009KT 9999 BKN015 OVC025 QNH3001INS TX26/2120Z TN19/2111Z
KBWI 
16nm NE 
202056Z 2021/2124 12007KT P6SM SCT025 BKN050 FM210600 14004KT P6SM BKN030 FM211600 17008KT P6SM BKN025 FM212100 18010KT P6SM SCT040 SCT110
KDAA 
20nm SW 
210102Z 2101/2207 12006KT 9999 BKN025 OVC050 QNH3015INS BECMG 2102/2103 VRB06KT 9999 BKN015 OVC025 QNH3020INS BECMG 2111/2112 VRB06KT 6000 BR BKN008 OVC015 QNH3018INS TEMPO 2114/2116 17012KT 9999 SCT008 BKN015 BECMG 2115/2116 18010G15KT 9999 NSW SCT015 OVC025 QNH3004INS BECMG 2202/2203 19009KT 9999 BKN015 OVC025 QNH3002INS TX27/2120Z TN19/2111Z LAST NO AMDS AFT 2101 NEXT 2109
NOTAMs
Click for the latest NOTAMs
NOTAMs are issued by the DoD/FAA and will open in a separate window not controlled by AirNav.

 

 
 

FBO, Fuel Providers, and Aircraft Ground Support

  
 Business Name 
 
 Contact 
 
 Services / Description 
 
Fuel Prices
 
Comments
  
College Park Airport 301-864-5844
no information available

If you are affiliated with College Park Airport and would like to show here your services, contact info, web link, logo, and more, click here
100LL Jet A
FS --- $4.58 
PS $5.50 --- 
 Updated 18-Sep-2018
 
   8 read write
FS=Full service
PS=Pump service
Update Fuel Prices
 

Getting Around: Taxi, Limo, Rental Cars, Mass Transit

  
 Business Name 
 
 Contact 
 
Services / Description
 
Comments
  
Metrorail [web site]
no information available

If you are affiliated with Metrorail and would like to show here your services, contact info, web link, logo, and more, click here
 
   3 read write
 

Things to do: Attractions on or near the airport

  
 Business Name 
 
 Contact 
 
 Services / Description 
 
Distance
 
Comments
  
College Park Aviation Museum 301-864-6029
no information available

If you are affiliated with College Park Aviation Museum and would like to show here your services, contact info, web link, logo, and more, click here
on airport  
   2 read write
 

Would you like to see your business listed on this page?

 If your business provides an interesting product or service to pilots, flight crews, aircraft, or users of the College Park Airport, you should consider listing it here.  To start the listing process, click on the button below
 
Add a business
 

Other Pages about College Park Airport

www.collegeparkairport.org
www.pgparks.com/...
 
Update a link
 
Copyright © AirNav, LLC. All rights reserved. Privacy Policy  Contact